Location: *
(49.3500°N, 12.6000°E)
Time: 18:10:10
(UTC+00:00)

Cosmos 2228 - Pass Details

Date: 18 October 2019
Orbit: 588 x 619 km, 82.5° (Epoch: 21 November)

Event Time Altitude Azimuth Distance (km) Brightness Sun altitude
Rises 17:00:18 0° 185° (S) 2,876 6.6 -8.2°
Reaches altitude 10° 17:02:31 10° 184° (S) 1,973 5.8 -8.6°
Maximum altitude 17:06:53 80° 98° (E) 629 3.0 -9.3°
Drops below altitude 10° 17:11:15 10° 12° (NNE) 1,972 5.5 -10.0°
Sets 17:13:29 0° 11° (NNE) 2,875 6.3 -10.4°
